Time,TemperatureF,DewpointF,PressureIn,WindDirection,WindDirectionDegrees,WindSpeedMPH,WindSpeedGustMPH,Humidity,HourlyPrecipIn,Conditions,Clouds,dailyrainin,SoftwareType,DateUTC
2013-02-21 00:04:00,22.6,11.0,30.00,WNW,302,4.0,15.0,60,0.00,,,0.00,weatherlink.com 1.10,2013-02-21 05:04:00,
2013-02-21 00:19:00,22.6,11.0,30.00,West,277,5.0,14.0,61,0.00,,,0.00,weatherlink.com 1.10,2013-02-21 05:19:00,
2013-02-21 00:34:00,22.5,11.0,30.00,West,273,5.0,17.0,61,0.00,,,0.00,weatherlink.com 1.10,2013-02-21 05:34:00,
2013-02-21 00:49:00,22.5,11.0,30.00,WSW,248,4.0,11.0,62,0.00,,,0.00,weatherlink.com 1.10,2013-02-21 05:49:00,
2013-02-21 01:04:00,22.5,12.0,30.00,West,277,4.0,10.0,63,0.00,,,0.00,weatherlink.com 1.10,2013-02-21 06:04:00,
2013-02-21 01:19:00,22.7,12.0,30.00,WSW,252,6.0,12.0,63,0.00,,,0.00,weatherlink.com 1.10,2013-02-21 06:19:00,
2013-02-21 01:34:00,23.0,12.0,30.00,West,265,10.0,16.0,63,0.00,,,0.00,weatherlink.com 1.10,2013-02-21 06:34:00,
2013-02-21 01:49:00,23.1,12.0,30.00,NW,312,4.0,10.0,63,0.00,,,0.00,weatherlink.com 1.10,2013-02-21 06:49:00,
2013-02-21 02:04:00,22.9,12.0,30.00,WSW,257,7.0,9.0,64,0.00,,,0.00,weatherlink.com 1.10,2013-02-21 07:04:00,
2013-02-21 02:19:00,23.1,13.0,30.00,NW,305,4.0,8.0,64,0.00,,,0.00,weatherlink.com 1.10,2013-02-21 07:19:00,
2013-02-21 02:34:00,23.1,13.0,30.00,West,269,3.0,11.0,64,0.00,,,0.00,weatherlink.com 1.10,2013-02-21 07:34:00,
2013-02-21 02:49:00,23.2,13.0,30.00,West,271,3.0,8.0,65,0.00,,,0.00,weatherlink.com 1.10,2013-02-21 07:49:00,
2013-02-21 03:04:00,23.1,13.0,30.00,NW,307,7.0,10.0,65,0.00,,,0.00,weatherlink.com 1.10,2013-02-21 08:04:00,
2013-02-21 03:19:00,23.1,13.0,30.00,WSW,238,4.0,7.0,66,0.00,,,0.00,weatherlink.com 1.10,2013-02-21 08:19:00,
2013-02-21 03:34:00,23.1,13.0,29.99,WNW,286,5.0,10.0,66,0.00,,,0.00,weatherlink.com 1.10,2013-02-21 08:34:00,
2013-02-21 03:49:00,23.0,14.0,29.99,WSW,258,4.0,12.0,67,0.00,,,0.00,weatherlink.com 1.10,2013-02-21 08:49:00,
2013-02-21 04:04:00,22.9,14.0,30.00,West,269,2.0,10.0,68,0.00,,,0.00,weatherlink.com 1.10,2013-02-21 09:04:00,
2013-02-21 04:19:00,22.8,14.0,30.00,West,267,4.0,10.0,68,0.00,,,0.00,weatherlink.com 1.10,2013-02-21 09:19:00,
2013-02-21 04:34:00,22.8,14.0,30.00,WSW,251,6.0,11.0,68,0.00,,,0.00,weatherlink.com 1.10,2013-02-21 09:34:00,
2013-02-21 04:49:00,22.9,14.0,30.01,WNW,302,4.0,15.0,68,0.00,,,0.00,weatherlink.com 1.10,2013-02-21 09:49:00,
2013-02-21 05:04:00,22.9,13.0,30.01,West,261,2.0,15.0,66,0.00,,,0.00,weatherlink.com 1.10,2013-02-21 10:04:00,
2013-02-21 05:19:00,23.0,12.0,30.02,West,279,6.0,14.0,64,0.00,,,0.00,weatherlink.com 1.10,2013-02-21 10:19:00,
2013-02-21 05:34:00,23.1,13.0,30.02,WSW,244,9.0,13.0,64,0.00,,,0.00,weatherlink.com 1.10,2013-02-21 10:34:00,
2013-02-21 05:49:00,23.1,12.0,30.02,WSW,246,8.0,16.0,62,0.00,,,0.00,weatherlink.com 1.10,2013-02-21 10:49:00,
2013-02-21 06:04:00,23.0,12.0,30.02,WNW,290,5.0,18.0,62,0.00,,,0.00,weatherlink.com 1.10,2013-02-21 11:04:00,
2013-02-21 06:19:00,23.0,12.0,30.02,WSW,247,5.0,14.0,62,0.00,,,0.00,weatherlink.com 1.10,2013-02-21 11:19:00,
2013-02-21 06:35:00,22.9,11.0,30.02,West,268,9.0,14.0,61,0.00,,,0.00,weatherlink.com 1.10,2013-02-21 11:35:00,
2013-02-21 06:50:00,23.0,12.0,30.03,West,277,5.0,11.0,62,0.00,,,0.00,weatherlink.com 1.10,2013-02-21 11:50:00,
2013-02-21 07:05:00,23.1,11.0,30.03,WSW,238,2.0,11.0,61,0.00,,,0.00,weatherlink.com 1.10,2013-02-21 12:05:00,
2013-02-21 07:20:00,23.1,11.0,30.03,WNW,294,2.0,10.0,61,0.00,,,0.00,weatherlink.com 1.10,2013-02-21 12:20:00,
2013-02-21 07:35:00,23.3,12.0,30.03,West,260,4.0,16.0,62,0.00,,,0.00,weatherlink.com 1.10,2013-02-21 12:35:00,
2013-02-21 07:50:00,23.6,12.0,30.04,West,271,4.0,14.0,62,0.00,,,0.00,weatherlink.com 1.10,2013-02-21 12:50:00,
2013-02-21 08:05:00,24.0,13.0,30.04,West,268,4.0,14.0,62,0.00,,,0.00,weatherlink.com 1.10,2013-02-21 13:05:00,
2013-02-21 08:20:00,24.4,13.0,30.04,West,263,0.0,10.0,63,0.00,,,0.00,weatherlink.com 1.10,2013-02-21 13:20:00,
2013-02-21 08:35:00,24.9,13.0,30.05,WNW,288,3.0,15.0,62,0.00,,,0.00,weatherlink.com 1.10,2013-02-21 13:35:00,
2013-02-21 08:50:00,24.9,14.0,30.05,NW,306,2.0,9.0,63,0.00,,,0.00,weatherlink.com 1.10,2013-02-21 13:50:00,
2013-02-21 09:05:00,24.8,13.0,30.05,WNW,298,6.0,17.0,62,0.00,,,0.00,weatherlink.com 1.10,2013-02-21 14:05:00,
2013-02-21 09:20:00,24.9,14.0,30.05,WNW,282,7.0,16.0,63,0.00,,,0.00,weatherlink.com 1.10,2013-02-21 14:20:00,
2013-02-21 09:35:00,25.0,14.0,30.05,WSW,257,3.0,13.0,63,0.00,,,0.00,weatherlink.com 1.10,2013-02-21 14:35:00,
2013-02-21 09:50:00,25.2,14.0,30.06,WNW,295,9.0,10.0,63,0.00,,,0.00,weatherlink.com 1.10,2013-02-21 14:50:00,
2013-02-21 10:05:00,25.3,12.0,30.07,West,265,5.0,17.0,58,0.00,,,0.00,weatherlink.com 1.10,2013-02-21 15:05:00,
2013-02-21 10:20:00,26.0,13.0,30.06,West,263,2.0,17.0,59,0.00,,,0.00,weatherlink.com 1.10,2013-02-21 15:20:00,
2013-02-21 10:35:00,26.7,13.0,30.07,WNW,299,3.0,19.0,57,0.00,,,0.00,weatherlink.com 1.10,2013-02-21 15:35:00,
2013-02-21 10:50:00,28.1,13.0,30.07,South,184,7.0,18.0,54,0.00,,,0.00,weatherlink.com 1.10,2013-02-21 15:50:00,
2013-02-21 11:05:00,28.8,13.0,30.08,WSW,242,4.0,16.0,52,0.00,,,0.00,weatherlink.com 1.10,2013-02-21 16:05:00,
2013-02-21 11:20:00,28.7,13.0,30.07,West,279,5.0,18.0,51,0.00,,,0.00,weatherlink.com 1.10,2013-02-21 16:20:00,
2013-02-21 11:35:00,28.5,13.0,30.07,NW,305,5.0,13.0,52,0.00,,,0.00,weatherlink.com 1.10,2013-02-21 16:35:00,
2013-02-21 11:50:00,28.7,13.0,30.08,West,271,2.0,14.0,53,0.00,,,0.00,weatherlink.com 1.10,2013-02-21 16:50:00,
2013-02-21 12:05:00,28.9,13.0,30.07,WNW,301,4.0,19.0,51,0.00,,,0.00,weatherlink.com 1.10,2013-02-21 17:05:00,
2013-02-21 12:20:00,29.2,13.0,30.06,NE,55,3.0,14.0,52,0.00,,,0.00,weatherlink.com 1.10,2013-02-21 17:20:00,
2013-02-21 12:35:00,29.8,14.0,30.06,West,274,4.0,11.0,51,0.00,,,0.00,weatherlink.com 1.10,2013-02-21 17:35:00,
2013-02-21 12:50:00,29.7,14.0,30.05,WSW,254,6.0,14.0,52,0.00,,,0.00,weatherlink.com 1.10,2013-02-21 17:50:00,
2013-02-21 13:05:00,30.1,14.0,30.06,West,273,8.0,16.0,51,0.00,,,0.00,weatherlink.com 1.10,2013-02-21 18:05:00,
2013-02-21 13:20:00,29.8,14.0,30.06,WSW,248,5.0,20.0,52,0.00,,,0.00,weatherlink.com 1.10,2013-02-21 18:20:00,
2013-02-21 13:35:00,30.2,15.0,30.06,West,278,10.0,18.0,53,0.00,,,0.00,weatherlink.com 1.10,2013-02-21 18:35:00,
2013-02-21 13:50:00,30.1,15.0,30.07,WNW,284,10.0,13.0,54,0.00,,,0.00,weatherlink.com 1.10,2013-02-21 18:50:00,
2013-02-21 14:05:00,30.3,15.0,30.07,NW,321,6.0,12.0,53,0.00,,,0.00,weatherlink.com 1.10,2013-02-21 19:05:00,
2013-02-21 14:20:00,30.1,15.0,30.07,NNW,344,6.0,16.0,53,0.00,,,0.00,weatherlink.com 1.10,2013-02-21 19:20:00,
2013-02-21 14:35:00,30.4,15.0,30.07,WSW,249,5.0,13.0,53,0.00,,,0.00,weatherlink.com 1.10,2013-02-21 19:35:00,
2013-02-21 14:50:00,31.3,15.0,30.07,WNW,289,4.0,14.0,52,0.00,,,0.00,weatherlink.com 1.10,2013-02-21 19:50:00,
2013-02-21 15:05:00,31.1,15.0,30.07,NNW,329,9.0,27.0,52,0.00,,,0.00,weatherlink.com 1.10,2013-02-21 20:05:00,
2013-02-21 15:20:00,31.6,15.0,30.08,West,273,3.0,15.0,51,0.00,,,0.00,weatherlink.com 1.10,2013-02-21 20:20:00,
2013-02-21 15:35:00,33.2,16.0,30.08,SW,217,4.0,12.0,50,0.00,,,0.00,weatherlink.com 1.10,2013-02-21 20:35:00,
2013-02-21 15:50:00,32.9,15.0,30.09,North,5,8.0,13.0,49,0.00,,,0.00,weatherlink.com 1.10,2013-02-21 20:50:00,
2013-02-21 16:06:00,33.4,17.0,30.10,West,273,8.0,11.0,51,0.00,,,0.00,weatherlink.com 1.10,2013-02-21 21:06:00,
2013-02-21 16:21:00,33.2,16.0,30.11,NNE,12,5.0,11.0,50,0.00,,,0.00,weatherlink.com 1.10,2013-02-21 21:21:00,
2013-02-21 16:36:00,31.6,15.0,30.12,WNW,300,10.0,21.0,51,0.00,,,0.00,weatherlink.com 1.10,2013-02-21 21:36:00,
2013-02-21 16:51:00,31.1,16.0,30.12,West,261,3.0,13.0,53,0.00,,,0.00,weatherlink.com 1.10,2013-02-21 21:51:00,
2013-02-21 17:06:00,30.9,16.0,30.13,NW,323,3.0,16.0,54,0.00,,,0.00,weatherlink.com 1.10,2013-02-21 22:06:00,
2013-02-21 17:21:00,30.1,16.0,30.14,NW,326,6.0,17.0,55,0.00,,,0.00,weatherlink.com 1.10,2013-02-21 22:21:00,
2013-02-21 17:36:00,29.2,16.0,30.14,West,265,4.0,14.0,57,0.00,,,0.00,weatherlink.com 1.10,2013-02-21 22:36:00,
2013-02-21 17:51:00,28.4,15.0,30.16,NNW,334,7.0,17.0,58,0.00,,,0.00,weatherlink.com 1.10,2013-02-21 22:51:00,
2013-02-21 18:06:00,27.7,15.0,30.17,NNW,338,3.0,18.0,58,0.00,,,0.00,weatherlink.com 1.10,2013-02-21 23:06:00,
2013-02-21 18:21:00,26.8,14.0,30.17,WNW,294,3.0,12.0,59,0.00,,,0.00,weatherlink.com 1.10,2013-02-21 23:21:00,
2013-02-21 18:36:00,26.1,14.0,30.19,West,272,7.0,13.0,60,0.00,,,0.00,weatherlink.com 1.10,2013-02-21 23:36:00,
2013-02-21 18:51:00,25.6,14.0,30.21,North,355,6.0,17.0,61,0.00,,,0.00,weatherlink.com 1.10,2013-02-21 23:51:00,
2013-02-21 19:06:00,25.1,13.0,30.23,WNW,295,7.0,12.0,61,0.00,,,0.00,weatherlink.com 1.10,2013-02-22 00:06:00,
2013-02-21 19:21:00,24.6,13.0,30.25,North,11,2.0,8.0,62,0.00,,,0.00,weatherlink.com 1.10,2013-02-22 00:21:00,
2013-02-21 19:36:00,24.3,13.0,30.26,NNE,28,3.0,15.0,63,0.00,,,0.00,weatherlink.com 1.10,2013-02-22 00:36:00,
2013-02-21 19:51:00,23.9,13.0,30.27,NNW,330,5.0,9.0,64,0.00,,,0.00,weatherlink.com 1.10,2013-02-22 00:51:00,
2013-02-21 20:06:00,23.6,13.0,30.29,WNW,289,2.0,10.0,64,0.00,,,0.00,weatherlink.com 1.10,2013-02-22 01:06:00,
2013-02-21 20:21:00,23.4,13.0,30.29,NW,321,10.0,14.0,65,0.00,,,0.00,weatherlink.com 1.10,2013-02-22 01:21:00,
2013-02-21 20:36:00,23.1,13.0,30.29,NNW,329,3.0,9.0,66,0.00,,,0.00,weatherlink.com 1.10,2013-02-22 01:36:00,
2013-02-21 20:51:00,23.0,13.0,30.31,NNW,343,1.0,10.0,66,0.00,,,0.00,weatherlink.com 1.10,2013-02-22 01:51:00,
2013-02-21 21:06:00,22.9,13.0,30.31,NE,45,6.0,7.0,67,0.00,,,0.00,weatherlink.com 1.10,2013-02-22 02:06:00,
2013-02-21 21:21:00,22.7,13.0,30.30,NNE,31,2.0,10.0,67,0.00,,,0.00,weatherlink.com 1.10,2013-02-22 02:21:00,
2013-02-21 21:36:00,22.4,13.0,30.31,North,360,5.0,12.0,67,0.00,,,0.00,weatherlink.com 1.10,2013-02-22 02:36:00,
2013-02-21 21:51:00,22.0,13.0,30.30,NE,37,6.0,15.0,67,0.00,,,0.00,weatherlink.com 1.10,2013-02-22 02:51:00,
2013-02-21 22:06:00,21.7,13.0,30.30,North,360,2.0,14.0,68,0.00,,,0.00,weatherlink.com 1.10,2013-02-22 03:06:00,
2013-02-21 22:21:00,21.6,13.0,30.30,NNW,338,5.0,14.0,68,0.00,,,0.00,weatherlink.com 1.10,2013-02-22 03:21:00,
2013-02-21 22:36:00,21.4,13.0,30.30,North,360,2.0,11.0,69,0.00,,,0.00,weatherlink.com 1.10,2013-02-22 03:36:00,
2013-02-21 22:51:00,21.1,13.0,30.30,NNW,346,2.0,9.0,70,0.00,,,0.00,weatherlink.com 1.10,2013-02-22 03:51:00,
2013-02-21 23:06:00,20.9,13.0,30.30,NW,309,2.0,7.0,70,0.00,,,0.00,weatherlink.com 1.10,2013-02-22 04:06:00,
2013-02-21 23:21:00,20.8,13.0,30.30,West,276,2.0,6.0,71,0.00,,,0.00,weatherlink.com 1.10,2013-02-22 04:21:00,
2013-02-21 23:36:00,20.8,13.0,30.31,NW,313,0.0,10.0,71,0.00,,,0.00,weatherlink.com 1.10,2013-02-22 04:36:00,
2013-02-21 23:51:00,20.6,13.0,30.31,NNW,338,0.0,5.0,72,0.00,,,0.00,weatherlink.com 1.10,2013-02-22 04:51:00,